Sacramento, CA

8:40 PM PDT on May 21, 2018 (GMT -0700)
Sacramento Executive

Weather History for KSAC - May, 2013

Change the Weather History Date:

Friday, May 31, 2013

  Actual Average Record
Temperature  
Mean Temperature 73 °F -  
Max Temperature 94 °F 84 °F 103 °F (2001)
Min Temperature 52 °F 54 °F 44 °F (1971)
Degree Days  
Heating Degree Days 0    
Cooling Degree Days 8    
Growing Degree Days 22 (Base 50)    
Moisture  
Dew Point 42 °F    
Average Humidity 51    
Maximum Humidity 89    
Minimum Humidity 12    
Precipitation  
Precipitation 0.00 in 0.02 in 0.29 in (1993)
Month to date precipitation 0.30 0.68  
Year to date precipitation 3.69 11.69  
Since 1 July precipitation 14.98  
Sea Level Pressure  
Sea Level Pressure 29.92 in    
Wind  
Wind Speed 6 mph (NW)    
Max Wind Speed 20 mph    
Max Gust Speed 28 mph    
Visibility 10 miles    
Events      
T = Trace of Precipitation, MM = Missing Value Source: NWS Daily Summary

Daily Weather History Graph

Daily Weather History Graph

Search for Another Location

Airport or City:

Astronomy

May. 31, 2013 Rise Set
Actual Time 5:43 AM PDT 8:23 PM PDT
Civil Twilight 5:12 AM PDT 8:55 PM PDT
Nautical Twilight 4:34 AM PDT 9:33 PM PDT
Astronomical Twilight 3:50 AM PDT 10:17 PM PDT
Moon 1:04 AM PDT (5/31) 1:00 PM PDT (5/31)
Length of Visible Light 15h 42m
Length of Day
14h 40m
Waning Gibbous, 50% of the Moon is Illuminated
May 31
Waning Gibbous
May 31
Last Quarter
Jun 8
New
Jun 16
First Quarter
Jun 23
Full

Hourly Weather History & Observations

Time (PDT) Temp. Dew Point Humidity Pressure Visibility Wind Dir Wind Speed Gust Speed Precip Events Conditions
12:53 AM 60.1 °F 46.0 °F 60% 29.95 in 10.0 mi Calm Calm - N/A   Clear
1:53 AM 55.9 °F 46.9 °F 72% 29.95 in 10.0 mi Calm Calm - N/A   Clear
2:53 AM 55.9 °F 48.0 °F 75% 29.94 in 10.0 mi Calm Calm - N/A   Clear
3:53 AM 55.9 °F 46.9 °F 72% 29.94 in 10.0 mi WNW 3.5 mph - N/A   Clear
4:53 AM 55.0 °F 48.0 °F 77% 29.95 in 10.0 mi Calm Calm - N/A   Clear
5:53 AM 52.0 °F 48.0 °F 86% 29.96 in 10.0 mi Calm Calm - N/A   Clear
6:53 AM 62.1 °F 45.0 °F 53% 29.96 in 10.0 mi NNW 6.9 mph - N/A   Clear
7:53 AM 66.9 °F 44.1 °F 44% 29.98 in 10.0 mi NW 9.2 mph - N/A   Clear
8:53 AM 72.0 °F 43.0 °F 35% 29.98 in 10.0 mi NNW 11.5 mph - N/A   Clear
9:53 AM 75.9 °F 43.0 °F 31% 29.98 in 10.0 mi NNW 11.5 mph 20.7 mph N/A   Clear
10:53 AM 81.0 °F 39.9 °F 23% 29.96 in 10.0 mi NNW 16.1 mph 21.9 mph N/A   Clear
11:53 AM 84.0 °F 43.0 °F 24% 29.96 in 10.0 mi NNW 9.2 mph - N/A   Clear
12:53 PM 87.1 °F 39.0 °F 18% 29.94 in 10.0 mi NNW 17.3 mph 26.5 mph N/A   Clear
1:53 PM 90.0 °F 37.9 °F 16% 29.93 in 10.0 mi WNW 16.1 mph 24.2 mph N/A   Clear
2:53 PM 91.9 °F 37.0 °F 15% 29.91 in 10.0 mi NNW 15.0 mph 21.9 mph N/A   Clear
3:53 PM 91.9 °F 34.0 °F 13% 29.89 in 10.0 mi NW 15.0 mph - N/A   Clear
4:53 PM 93.0 °F 33.1 °F 12% 29.88 in 10.0 mi NNW 11.5 mph - N/A   Clear
5:53 PM 93.0 °F 33.1 °F 12% 29.86 in 10.0 mi NNW 11.5 mph - N/A   Clear
6:53 PM 91.0 °F 33.1 °F 13% 29.87 in 10.0 mi NNW 10.4 mph - N/A   Clear
7:53 PM 88.0 °F 35.1 °F 15% 29.87 in 10.0 mi NW 5.8 mph - N/A   Clear
8:53 PM 73.9 °F 46.9 °F 38% 29.86 in 10.0 mi SW 3.5 mph - N/A   Clear
9:53 PM 73.0 °F 48.0 °F 41% 29.87 in 10.0 mi SW 3.5 mph - N/A   Clear
10:53 PM 70.0 °F 48.0 °F 46% 29.88 in 10.0 mi SW 5.8 mph - N/A   Clear
11:53 PM 66.9 °F 48.9 °F 52% 29.87 in 10.0 mi SW 3.5 mph - N/A   Clear